EW6903 Lockport LA US current weather conditions

sailwx.info

Wind from 146 at 3 knots

Air temperature 30.0° C
Dewpoint 25.9° C

Last reported at 2020-Sep-23 22:01 UTC.
Time now 2020-Sep-23 23:09 UTC

Location: N 29°40' W 090°33'.
View on Google Maps.

See reports from other nearby stations

  
Tides and Currents Weather Stations Pressure Air Temp Water Temp Dewpoint Dewpoint Depression Visibility Wind Speed Wind Dir Waves Ship Positions
date/time (UTC)wind fromknots sea level pressurealtimeterstation pressurevisibilityair tempwater tempwave heightnotes
2020-Sep-23 22:01 146 3 30.0
2020-Sep-23 21:45 171 6 29.4
2020-Sep-23 21:31 208 5 30.0
2020-Sep-23 21:15 170 5 30.0
2020-Sep-23 21:00 159 6 29.4
2020-Sep-23 20:45 163 4 28.9
2020-Sep-23 20:30 174 4 28.9
2020-Sep-23 20:15 175 6 28.3
2020-Sep-23 20:00 147 5 28.3
2020-Sep-23 19:45 160 5 28.9
2020-Sep-23 19:30 189 6 29.4
2020-Sep-23 19:15 177 5 29.4
2020-Sep-23 19:00 130 6 28.9
2020-Sep-23 18:45 182 6 28.3
2020-Sep-23 18:30 157 6 28.3
2020-Sep-23 18:15 114 6 28.3
2020-Sep-23 18:00 147 6 28.9
2020-Sep-23 17:45 152 7 28.9
2020-Sep-23 17:30 151 6 28.3
2020-Sep-23 17:18 188 6 27.8
2020-Sep-23 17:02 174 3 27.2
2020-Sep-23 16:47 155 3 26.7
2020-Sep-23 16:31 150 2 26.1
2020-Sep-23 16:16 163 3 26.1
2020-Sep-23 16:01 164 3 25.6
2020-Sep-23 15:46 163 4 25.6
2020-Sep-23 15:31 134 3 26.1
2020-Sep-23 15:18 150 3 26.1
2020-Sep-23 15:01 114 3 26.1
2020-Sep-23 14:46 141 2 25.6
2020-Sep-23 14:32 150 3 25.6
2020-Sep-23 14:17 151 4 26.1
2020-Sep-23 14:01 123 4 26.1
2020-Sep-23 13:46 149 2 25.6
2020-Sep-23 13:31 087 2 25.6
2020-Sep-23 13:16 161 4 25.6
2020-Sep-23 13:01 113 3 25.0
2020-Sep-23 12:46 153 2 25.0
2020-Sep-23 12:30 105 2 25.0
2020-Sep-23 12:15 128 3 25.0
2020-Sep-23 12:01 105 3 24.4
2020-Sep-23 11:45 117 2 24.4
2020-Sep-23 11:30 141 3 24.4
2020-Sep-23 11:16 143 3 24.4
2020-Sep-23 11:01 132 4 24.4
2020-Sep-23 10:46 124 3 24.4
2020-Sep-23 10:31 134 4 24.4
2020-Sep-23 10:16 144 4 25.0
2020-Sep-23 10:00 100 5 25.0
2020-Sep-23 09:46 120 3 25.0
2020-Sep-23 09:31 103 3 25.0
2020-Sep-23 09:16 161 3 25.0
2020-Sep-23 09:00 109 4 25.0
2020-Sep-23 08:46 098 4 25.0
2020-Sep-23 08:30 106 3 25.0
2020-Sep-23 08:15 129 3 25.0
2020-Sep-23 08:01 160 2 25.0
2020-Sep-23 07:46 096 3 25.0
2020-Sep-23 07:30 148 3 25.0
2020-Sep-23 07:15 127 3 25.0
2020-Sep-23 07:00 118 3 25.0
2020-Sep-23 06:45 128 1 24.4
2020-Sep-23 06:30 104 2 24.4
2020-Sep-23 06:15 096 2 24.4
2020-Sep-23 06:01 103 2 24.4
2020-Sep-23 05:45 130 2 24.4
2020-Sep-23 05:30 102 1 24.4
2020-Sep-23 05:15 113 1 24.4
2020-Sep-23 05:00 114 1 24.4
2020-Sep-23 04:45 123 3 24.4
2020-Sep-23 04:30 122 3 24.4
2020-Sep-23 04:16 116 3 25.0
2020-Sep-23 04:00 126 1 25.0
2020-Sep-23 03:46 107 2 25.0
2020-Sep-23 03:31 123 3 25.0
2020-Sep-23 03:15 096 3 25.0
2020-Sep-23 03:00 125 2 25.0
2020-Sep-23 02:45 105 2 25.0
2020-Sep-23 02:30 102 2 25.0
2020-Sep-23 02:15 123 3 25.0
2020-Sep-23 02:00 135 1 25.0
2020-Sep-23 01:45 100 2 25.0
2020-Sep-23 01:30 121 2 25.0
2020-Sep-23 01:15 125 2 25.0
2020-Sep-23 01:00 145 2 25.0
2020-Sep-23 00:45 130 3 25.0
2020-Sep-23 00:30 112 2 25.0
2020-Sep-23 00:16 109 3 25.0
2020-Sep-23 00:01 118 4 25.0
2020-Sep-22 23:45 105 3 25.0
2020-Sep-22 23:30 115 3 25.0
2020-Sep-22 23:15 142 4 25.0
2020-Sep-22 23:00 131 0 25.0
2020-Sep-22 22:45 138 2 25.0
2020-Sep-22 22:30 148 4 25.0
2020-Sep-22 22:15 116 5 25.0
2020-Sep-22 22:00 122 5 25.6
2020-Sep-22 21:45 109 6 25.6
2020-Sep-22 21:30 102 6 25.6
2020-Sep-22 21:15 128 6 25.0
2020-Sep-22 21:00 144 5 25.0
2020-Sep-22 20:45 109 5 25.0
2020-Sep-22 20:30 098 4 25.0
2020-Sep-22 20:15 140 4 25.0
2020-Sep-22 20:00 102 2 25.0
2020-Sep-22 19:45 094 3 25.0
2020-Sep-22 19:30 088 3 24.4
2020-Sep-22 19:15 083 2 24.4
2020-Sep-22 19:01 093 2 24.4
2020-Sep-22 18:46 088 2 24.4
2020-Sep-22 18:33 101 3 24.4
2020-Sep-22 18:17 097 2 24.4
2020-Sep-22 18:01 096 3 24.4
2020-Sep-22 17:46 093 2 24.4
2020-Sep-22 17:31 104 4 24.4
2020-Sep-22 17:17 096 2 24.4
2020-Sep-22 17:02 105 3 24.4
2020-Sep-22 16:48 083 4 25.0
2020-Sep-22 16:31 078 4 25.0
2020-Sep-22 16:16 116 4 25.0
2020-Sep-22 16:03 115 4 25.0
2020-Sep-22 15:47 100 4 25.0
2020-Sep-22 15:31 099 5 26.1
2020-Sep-22 15:17 142 6 26.1
2020-Sep-22 15:01 171 6 26.7
2020-Sep-22 14:46 096 5 26.1
2020-Sep-22 14:31 103 6 26.1
2020-Sep-22 14:17 111 5 25.6
2020-Sep-22 14:02 107 5 25.0
2020-Sep-22 13:46 099 4 25.0
2020-Sep-22 13:31 126 6 24.4
2020-Sep-22 13:17 094 6 24.4
2020-Sep-22 13:01 098 5 24.4
2020-Sep-22 12:46 080 5 23.9
2020-Sep-22 12:31 104 5 23.9
2020-Sep-22 12:15 100 3 23.3
2020-Sep-22 12:01 093 3 23.3
2020-Sep-22 11:46 102 4 22.8
2020-Sep-22 11:31 088 3 22.8
2020-Sep-22 11:16 088 4 22.8
2020-Sep-22 11:01 087 4 22.8
2020-Sep-22 10:46 080 3 22.8
2020-Sep-22 10:30 062 2 22.2
2020-Sep-22 10:15 086 3 22.2
2020-Sep-22 10:02 071 2 22.2
2020-Sep-22 09:46 079 3 22.2
2020-Sep-22 09:31 074 3 22.2
2020-Sep-22 09:15 094 3 22.2
2020-Sep-22 09:01 084 3 22.2
2020-Sep-22 08:45 084 2 22.2
2020-Sep-22 08:30 067 2 22.2
2020-Sep-22 08:16 077 1 22.2
2020-Sep-22 08:01 071 3 22.2
2020-Sep-22 07:45 080 4 22.8
2020-Sep-22 07:30 100 3 22.2
2020-Sep-22 07:15 094 3 22.2
2020-Sep-22 07:00 088 2 22.2
2020-Sep-22 06:46 092 3 22.2
2020-Sep-22 06:30 073 3 22.2
2020-Sep-22 06:16 089 3 22.2
2020-Sep-22 06:00 066 3 22.2
2020-Sep-22 05:45 092 3 22.2
2020-Sep-22 05:30 072 2 22.2
2020-Sep-22 05:16 069 3 22.2
2020-Sep-22 05:01 066 2 22.2
2020-Sep-22 04:45 070 2 22.8
2020-Sep-22 04:30 097 2 22.8
2020-Sep-22 04:15 084 3 22.8
2020-Sep-22 04:00 086 3 22.8
2020-Sep-22 03:45 098 3 22.8
2020-Sep-22 03:30 098 2 23.3
2020-Sep-22 03:15 098 4 23.9
2020-Sep-22 03:00 108 3 23.9
2020-Sep-22 02:45 098 5 23.9
2020-Sep-22 02:30 097 5 23.9
2020-Sep-22 02:00 084 6 23.9
2020-Sep-22 01:46 099 6 23.9
2020-Sep-22 01:45 092 6 23.9
2020-Sep-22 01:31 099 6 23.9
2020-Sep-22 01:15 098 5 23.9
2020-Sep-22 01:00 093 5 23.9
2020-Sep-22 00:45 099 5 23.9
2020-Sep-22 00:30 100 5 23.9
2020-Sep-22 00:15 103 5 23.9
2020-Sep-22 00:00 110 5 23.3
2020-Sep-21 23:45 098 6 23.9
2020-Sep-21 23:30 101 7 23.9
2020-Sep-21 23:16 087 6 23.9
2020-Sep-21 23:02 102 6 23.9